Year,Month,Day,Hour,Minute,Value (Times are PST for temperature in C)
2011,02,28,00,00,2.30
2011,02,28,00,01,2.30
2011,02,28,00,02,2.30
2011,02,28,00,03,2.30
2011,02,28,00,04,2.30
2011,02,28,00,05,2.30
2011,02,28,00,06,2.30
2011,02,28,00,07,2.30
2011,02,28,00,08,2.30
2011,02,28,00,09,2.30
2011,02,28,00,10,2.30
2011,02,28,00,11,2.30
2011,02,28,00,12,2.40
2011,02,28,00,13,2.40
2011,02,28,00,18,2.40
2011,02,28,00,19,2.50
2011,02,28,00,20,2.50
2011,02,28,00,21,2.50
2011,02,28,00,22,2.50
2011,02,28,00,23,2.50
2011,02,28,00,24,2.60
2011,02,28,00,25,2.60
2011,02,28,00,26,2.60
2011,02,28,00,27,2.60
2011,02,28,00,28,2.60
2011,02,28,00,29,2.60
2011,02,28,00,30,2.60
2011,02,28,00,31,2.60
2011,02,28,00,32,2.60
2011,02,28,00,33,2.60
2011,02,28,00,34,2.60
2011,02,28,00,35,2.60
2011,02,28,00,36,2.60
2011,02,28,00,37,2.60
2011,02,28,00,38,2.50
2011,02,28,00,39,2.50
2011,02,28,00,40,2.50
2011,02,28,00,41,2.50
2011,02,28,00,42,2.50
2011,02,28,00,43,2.50
2011,02,28,00,44,2.50
2011,02,28,00,45,2.50
2011,02,28,00,46,2.60
2011,02,28,00,47,2.60
2011,02,28,00,48,2.60
2011,02,28,00,49,2.60
2011,02,28,00,50,2.60
2011,02,28,00,51,2.60
2011,02,28,00,52,2.60
2011,02,28,00,53,2.60
2011,02,28,00,54,2.60
2011,02,28,00,55,2.60
2011,02,28,00,56,2.60
2011,02,28,00,57,2.60
2011,02,28,00,58,2.60
2011,02,28,00,59,2.60
2011,02,28,01,00,2.60
2011,02,28,01,01,2.60
2011,02,28,01,02,2.60
2011,02,28,01,03,2.60
2011,02,28,01,04,2.60
2011,02,28,01,05,2.70
2011,02,28,01,06,2.70
2011,02,28,01,07,2.70
2011,02,28,01,08,2.70
2011,02,28,01,09,2.70
2011,02,28,01,10,2.70
2011,02,28,01,11,2.70
2011,02,28,01,12,2.80
2011,02,28,01,13,2.80
2011,02,28,01,14,2.80
2011,02,28,01,15,2.80
2011,02,28,01,16,2.80
2011,02,28,01,17,2.80
2011,02,28,01,18,2.80
2011,02,28,01,19,2.80
2011,02,28,01,20,2.80
2011,02,28,01,21,2.80
2011,02,28,01,22,2.80
2011,02,28,01,23,2.80
2011,02,28,01,24,2.80
2011,02,28,01,25,2.70
2011,02,28,01,26,2.70
2011,02,28,01,27,2.70
2011,02,28,01,28,2.70
2011,02,28,01,29,2.70
2011,02,28,01,30,2.70
2011,02,28,01,31,2.70
2011,02,28,01,32,2.70
2011,02,28,01,33,2.70
2011,02,28,01,34,2.70
2011,02,28,01,35,2.70
2011,02,28,01,36,2.80
2011,02,28,01,37,2.80
2011,02,28,01,38,2.80
2011,02,28,01,39,2.80
2011,02,28,01,40,2.80
2011,02,28,01,41,2.80
2011,02,28,01,42,2.80
2011,02,28,01,43,2.80
2011,02,28,01,44,2.80
2011,02,28,01,45,2.80
2011,02,28,01,46,2.80
2011,02,28,01,47,2.80
2011,02,28,01,48,2.80
2011,02,28,01,49,2.80
2011,02,28,01,50,2.80
2011,02,28,01,51,2.80
2011,02,28,01,52,2.80
2011,02,28,01,53,2.80
2011,02,28,01,54,2.80
2011,02,28,01,55,2.80
2011,02,28,01,56,2.80
2011,02,28,01,57,2.80
2011,02,28,01,58,2.80
2011,02,28,01,59,2.70
2011,02,28,02,00,2.70
2011,02,28,02,01,2.60
2011,02,28,02,02,2.60
2011,02,28,02,03,2.60
2011,02,28,02,04,2.50
2011,02,28,02,05,2.40
2011,02,28,02,06,2.40
2011,02,28,02,07,2.30
2011,02,28,02,08,2.20
2011,02,28,02,09,2.10
2011,02,28,02,10,2.10
2011,02,28,02,11,2.00
2011,02,28,02,12,1.90
2011,02,28,02,13,1.90
2011,02,28,02,14,1.80
2011,02,28,02,15,1.80
2011,02,28,02,16,1.70
2011,02,28,02,17,1.70
2011,02,28,02,18,1.70
2011,02,28,02,19,1.60
2011,02,28,02,20,1.60
2011,02,28,02,21,1.60
2011,02,28,02,22,1.60
2011,02,28,02,23,1.60
2011,02,28,02,24,1.60
2011,02,28,02,25,1.50
2011,02,28,02,26,1.50
2011,02,28,02,27,1.50
2011,02,28,02,28,1.50
2011,02,28,02,29,1.50
2011,02,28,02,30,1.50
2011,02,28,02,31,1.40
2011,02,28,02,32,1.40
2011,02,28,02,33,1.40
2011,02,28,02,34,1.30
2011,02,28,02,35,1.30
2011,02,28,02,36,1.30
2011,02,28,02,37,1.30
2011,02,28,02,38,1.30
2011,02,28,02,39,1.30
2011,02,28,02,40,1.30
2011,02,28,02,41,1.30
2011,02,28,02,42,1.30
2011,02,28,02,43,1.30
2011,02,28,02,44,1.20
2011,02,28,02,45,1.20
2011,02,28,02,46,1.20
2011,02,28,02,47,1.20
2011,02,28,02,48,1.20
2011,02,28,02,49,1.20
2011,02,28,02,50,1.10
2011,02,28,02,51,1.10
2011,02,28,02,52,1.10
2011,02,28,02,53,1.00
2011,02,28,02,54,1.00
2011,02,28,02,55,1.00
2011,02,28,02,56,1.00
2011,02,28,02,57,0.90
2011,02,28,02,58,0.90
2011,02,28,02,59,0.90
2011,02,28,03,00,0.90
2011,02,28,03,01,0.80
2011,02,28,03,02,0.80
2011,02,28,03,03,0.80
2011,02,28,03,04,0.80
2011,02,28,03,05,0.80
2011,02,28,03,06,0.80
2011,02,28,03,07,0.70
2011,02,28,03,08,0.70
2011,02,28,03,09,0.70
2011,02,28,03,10,0.70
2011,02,28,03,11,0.70
2011,02,28,03,12,0.70
2011,02,28,03,13,0.60
2011,02,28,03,14,0.60
2011,02,28,03,15,0.60
2011,02,28,03,16,0.60
2011,02,28,03,17,0.60
2011,02,28,03,18,0.60
2011,02,28,03,19,0.50
2011,02,28,03,20,0.50
2011,02,28,03,21,0.50
2011,02,28,03,22,0.40
2011,02,28,03,23,0.40
2011,02,28,03,24,0.40
2011,02,28,03,25,0.40
2011,02,28,03,26,0.30
2011,02,28,03,27,0.30
2011,02,28,03,28,0.30
2011,02,28,03,29,0.30
2011,02,28,03,30,0.30
2011,02,28,03,31,0.30
2011,02,28,03,32,0.30
2011,02,28,03,33,0.30
2011,02,28,03,34,0.30
2011,02,28,03,35,0.30
2011,02,28,03,36,0.30
2011,02,28,03,37,0.30
2011,02,28,03,38,0.30
2011,02,28,03,39,0.30
2011,02,28,03,40,0.30
2011,02,28,03,41,0.30
2011,02,28,03,42,0.30
2011,02,28,03,43,0.30
2011,02,28,03,44,0.30
2011,02,28,03,45,0.30
2011,02,28,03,46,0.30
2011,02,28,03,47,0.30
2011,02,28,03,48,0.30
2011,02,28,03,49,0.30
2011,02,28,03,50,0.30
2011,02,28,03,51,0.30
2011,02,28,03,52,0.30
2011,02,28,03,53,0.30
2011,02,28,03,54,0.30
2011,02,28,03,55,0.30
2011,02,28,03,56,0.30
2011,02,28,03,57,0.30
2011,02,28,03,58,0.40
2011,02,28,03,59,0.40
2011,02,28,04,00,0.40
2011,02,28,04,01,0.50
2011,02,28,04,02,0.50
2011,02,28,04,03,0.60
2011,02,28,04,04,0.60
2011,02,28,04,05,0.60
2011,02,28,04,06,0.60
2011,02,28,04,07,0.60
2011,02,28,04,08,0.60
2011,02,28,04,09,0.60
2011,02,28,04,10,0.60
2011,02,28,04,11,0.60
2011,02,28,04,12,0.60
2011,02,28,04,13,0.50
2011,02,28,04,14,0.50
2011,02,28,04,15,0.50
2011,02,28,04,16,0.50
2011,02,28,04,17,0.50
2011,02,28,04,18,0.50
2011,02,28,04,19,0.50
2011,02,28,04,20,0.50
2011,02,28,04,21,0.50
2011,02,28,04,22,0.60
2011,02,28,04,23,0.60
2011,02,28,04,24,0.60
2011,02,28,04,25,0.60
2011,02,28,04,26,0.70
2011,02,28,04,27,0.70
2011,02,28,04,28,0.80
2011,02,28,04,29,0.80
2011,02,28,04,30,0.80
2011,02,28,04,31,0.80
2011,02,28,04,32,0.80
2011,02,28,04,33,0.80
2011,02,28,04,34,0.90
2011,02,28,04,35,0.90
2011,02,28,04,36,0.90
2011,02,28,04,37,0.90
2011,02,28,04,38,0.90
2011,02,28,04,39,1.00
2011,02,28,04,40,1.00
2011,02,28,04,41,1.10
2011,02,28,04,42,1.10
2011,02,28,04,43,1.10
2011,02,28,04,44,1.10
2011,02,28,04,45,1.10
2011,02,28,04,46,1.10
2011,02,28,04,47,1.10
2011,02,28,04,48,1.20
2011,02,28,04,49,1.20
2011,02,28,04,50,1.20
2011,02,28,04,51,1.10
2011,02,28,04,52,1.10
2011,02,28,04,53,1.10
2011,02,28,04,54,1.20
2011,02,28,04,55,1.20
2011,02,28,04,56,1.20
2011,02,28,04,57,1.20
2011,02,28,04,58,1.20
2011,02,28,04,59,1.20
2011,02,28,05,00,1.20
2011,02,28,05,01,1.20
2011,02,28,05,02,1.20
2011,02,28,05,03,1.10
2011,02,28,05,04,1.10
2011,02,28,05,05,1.10
2011,02,28,05,06,1.10
2011,02,28,05,07,1.10
2011,02,28,05,08,1.10
2011,02,28,05,09,1.00
2011,02,28,05,10,1.00
2011,02,28,05,11,1.00
2011,02,28,05,12,1.00
2011,02,28,05,13,1.00
2011,02,28,05,14,1.00
2011,02,28,05,15,1.00
2011,02,28,05,16,1.00
2011,02,28,05,17,1.10
2011,02,28,05,18,1.10
2011,02,28,05,19,1.10
2011,02,28,05,20,1.10
2011,02,28,05,21,1.10
2011,02,28,05,22,1.10
2011,02,28,05,23,1.00
2011,02,28,05,24,1.00
2011,02,28,05,25,1.00
2011,02,28,05,26,1.00
2011,02,28,05,27,0.90
2011,02,28,05,28,0.90
2011,02,28,05,29,0.90
2011,02,28,05,30,0.90
2011,02,28,05,31,0.80
2011,02,28,05,32,0.80
2011,02,28,05,33,0.80
2011,02,28,05,34,0.80
2011,02,28,05,35,0.80
2011,02,28,05,36,0.70
2011,02,28,05,37,0.70
2011,02,28,05,38,0.70
2011,02,28,05,39,0.70
2011,02,28,05,40,0.70
2011,02,28,05,41,0.60
2011,02,28,05,42,0.60
2011,02,28,05,43,0.60
2011,02,28,05,44,0.60
2011,02,28,05,45,0.60
2011,02,28,05,46,0.50
2011,02,28,05,47,0.50
2011,02,28,05,48,0.50
2011,02,28,05,49,0.50
2011,02,28,05,50,0.40
2011,02,28,05,51,0.40
2011,02,28,05,52,0.40
2011,02,28,05,53,0.40
2011,02,28,05,54,0.40
2011,02,28,05,55,0.40
2011,02,28,05,56,0.40
2011,02,28,05,57,0.40
2011,02,28,05,58,0.40
2011,02,28,05,59,0.40
2011,02,28,06,00,0.30
2011,02,28,06,01,0.30
2011,02,28,06,02,0.30
2011,02,28,06,03,0.40
2011,02,28,06,04,0.40
2011,02,28,06,05,0.40
2011,02,28,06,06,0.40
2011,02,28,06,07,0.50
2011,02,28,06,08,0.50
2011,02,28,06,09,0.50
2011,02,28,06,10,0.50
2011,02,28,06,11,0.50
2011,02,28,06,12,0.50
2011,02,28,06,13,0.50
2011,02,28,06,14,0.50
2011,02,28,06,15,0.50
2011,02,28,06,16,0.50
2011,02,28,06,17,0.50
2011,02,28,06,18,0.50
2011,02,28,06,19,0.60
2011,02,28,06,20,0.60
2011,02,28,06,21,0.60
2011,02,28,06,22,0.60
2011,02,28,06,23,0.60
2011,02,28,06,24,0.70
2011,02,28,06,25,0.70
2011,02,28,06,26,0.70
2011,02,28,06,27,0.70
2011,02,28,06,28,0.70
2011,02,28,06,29,0.70
2011,02,28,06,30,0.70
2011,02,28,06,31,0.70
2011,02,28,06,32,0.60
2011,02,28,06,33,0.60
2011,02,28,06,34,0.60
2011,02,28,06,35,0.60
2011,02,28,06,36,0.60
2011,02,28,06,37,0.60
2011,02,28,06,38,0.60
2011,02,28,06,39,0.70
2011,02,28,06,40,0.70
2011,02,28,06,41,0.70
2011,02,28,06,42,0.70
2011,02,28,06,43,0.70
2011,02,28,06,44,0.70
2011,02,28,06,45,0.70
2011,02,28,06,46,0.70
2011,02,28,06,47,0.70
2011,02,28,06,48,0.70
2011,02,28,06,49,0.70
2011,02,28,06,50,0.70
2011,02,28,06,51,0.70
2011,02,28,06,52,0.70
2011,02,28,06,53,0.70
2011,02,28,06,54,0.70
2011,02,28,06,55,0.70
2011,02,28,06,56,0.60
2011,02,28,06,57,0.60
2011,02,28,06,58,0.60
2011,02,28,06,59,0.60
2011,02,28,07,00,0.60
2011,02,28,07,01,0.60
2011,02,28,07,02,0.60
2011,02,28,07,03,0.60
2011,02,28,07,04,0.60
2011,02,28,07,05,0.60
2011,02,28,07,06,0.60
2011,02,28,07,07,0.60
2011,02,28,07,08,0.60
2011,02,28,07,09,0.60
2011,02,28,07,10,0.60
2011,02,28,07,11,0.60
2011,02,28,07,12,0.60
2011,02,28,07,13,0.60
2011,02,28,07,14,0.60
2011,02,28,07,15,0.60
2011,02,28,07,16,0.60
2011,02,28,07,17,0.60
2011,02,28,07,18,0.60
2011,02,28,07,19,0.60
2011,02,28,07,20,0.60
2011,02,28,07,21,0.60
2011,02,28,07,22,0.60
2011,02,28,07,23,0.60
2011,02,28,07,24,0.60
2011,02,28,07,25,0.60
2011,02,28,07,26,0.60
2011,02,28,07,27,0.60
2011,02,28,07,28,0.60
2011,02,28,07,29,0.60
2011,02,28,07,30,0.60
2011,02,28,07,31,0.60
2011,02,28,07,32,0.60
2011,02,28,07,33,0.60
2011,02,28,07,34,0.60
2011,02,28,07,35,0.60
2011,02,28,07,36,0.60
2011,02,28,07,37,0.70
2011,02,28,07,38,0.70
2011,02,28,07,39,0.70
2011,02,28,07,40,0.70
2011,02,28,07,41,0.70
2011,02,28,07,42,0.70
2011,02,28,07,43,0.70
2011,02,28,07,44,0.70
2011,02,28,07,45,0.70
2011,02,28,07,46,0.70
2011,02,28,07,47,0.70
2011,02,28,07,48,0.80
2011,02,28,07,49,0.70
2011,02,28,07,50,0.70
2011,02,28,07,51,0.70
2011,02,28,07,52,0.70
2011,02,28,07,53,0.70
2011,02,28,07,54,0.70
2011,02,28,07,55,0.70
2011,02,28,07,56,0.70
2011,02,28,07,57,0.70
2011,02,28,07,58,0.70
2011,02,28,07,59,0.70
2011,02,28,08,00,0.70
2011,02,28,08,01,0.70
2011,02,28,08,02,0.70
2011,02,28,08,03,0.70
2011,02,28,08,04,0.70
2011,02,28,08,05,0.70
2011,02,28,08,06,0.80
2011,02,28,08,07,0.80
2011,02,28,08,08,0.80
2011,02,28,08,09,0.90
2011,02,28,08,10,0.90
2011,02,28,08,11,1.00
2011,02,28,08,12,1.00
2011,02,28,08,13,1.00
2011,02,28,08,14,1.10
2011,02,28,08,15,1.10
2011,02,28,08,16,1.10
2011,02,28,08,17,1.10
2011,02,28,08,18,1.20
2011,02,28,08,19,1.20
2011,02,28,08,20,1.20
2011,02,28,08,21,1.20
2011,02,28,08,22,1.30
2011,02,28,08,23,1.30
2011,02,28,08,24,1.30
2011,02,28,08,25,1.30
2011,02,28,08,26,1.30
2011,02,28,08,27,1.30
2011,02,28,08,28,1.40
2011,02,28,08,29,1.40
2011,02,28,08,30,1.40
2011,02,28,08,31,1.50
2011,02,28,08,32,1.50
2011,02,28,08,33,1.60
2011,02,28,08,34,1.60
2011,02,28,08,35,1.60
2011,02,28,08,36,1.70
2011,02,28,08,37,1.70
2011,02,28,08,38,1.70
2011,02,28,08,39,1.70
2011,02,28,08,40,1.70
2011,02,28,08,41,1.70
2011,02,28,08,42,1.80
2011,02,28,08,43,1.80
2011,02,28,08,44,1.80
2011,02,28,08,45,1.80
2011,02,28,08,46,1.80
2011,02,28,08,47,1.90
2011,02,28,08,48,1.90
2011,02,28,08,49,1.90
2011,02,28,08,50,1.90
2011,02,28,08,51,2.00
2011,02,28,08,52,2.00
2011,02,28,08,53,2.00
2011,02,28,08,54,2.10
2011,02,28,08,55,2.00
2011,02,28,08,56,2.00
2011,02,28,08,57,2.10
2011,02,28,08,58,2.10
2011,02,28,08,59,2.10
2011,02,28,09,00,2.20
2011,02,28,09,01,2.20
2011,02,28,09,02,2.20
2011,02,28,09,03,2.20
2011,02,28,09,04,2.20
2011,02,28,09,05,2.30
2011,02,28,09,06,2.30
2011,02,28,09,07,2.30
2011,02,28,09,08,2.30
2011,02,28,09,09,2.30
2011,02,28,09,10,2.40
2011,02,28,09,11,2.40
2011,02,28,09,12,2.40
2011,02,28,09,13,2.50
2011,02,28,09,14,2.60
2011,02,28,09,15,2.60
2011,02,28,09,16,2.60
2011,02,28,09,17,2.60
2011,02,28,09,18,2.60
2011,02,28,09,19,2.70
2011,02,28,09,20,2.70
2011,02,28,09,21,2.70
2011,02,28,09,22,2.80
2011,02,28,09,23,2.80
2011,02,28,09,24,2.80
2011,02,28,09,25,2.80
2011,02,28,09,26,2.80
2011,02,28,09,27,2.80
2011,02,28,09,28,2.80
2011,02,28,09,29,2.90
2011,02,28,09,30,2.90
2011,02,28,09,31,2.90
2011,02,28,09,32,2.90
2011,02,28,09,33,2.90
2011,02,28,09,34,3.00
2011,02,28,09,35,3.00
2011,02,28,09,36,3.00
2011,02,28,09,37,2.90
2011,02,28,09,38,2.90
2011,02,28,09,39,2.90
2011,02,28,09,40,2.90
2011,02,28,09,41,2.80
2011,02,28,09,42,2.80
2011,02,28,09,43,2.80
2011,02,28,09,44,2.80
2011,02,28,09,45,2.70
2011,02,28,09,46,2.70
2011,02,28,09,47,2.70
2011,02,28,09,48,2.70
2011,02,28,09,49,2.70
2011,02,28,09,50,2.70
2011,02,28,09,51,2.80
2011,02,28,09,52,2.80
2011,02,28,09,53,2.80
2011,02,28,09,54,2.80
2011,02,28,09,55,2.80
2011,02,28,09,56,2.90
2011,02,28,09,57,2.90
2011,02,28,09,58,2.90
2011,02,28,09,59,2.90
2011,02,28,10,00,3.00
2011,02,28,10,01,3.00
2011,02,28,10,02,3.00
2011,02,28,10,03,3.00
2011,02,28,10,04,3.10
2011,02,28,10,05,3.10
2011,02,28,10,06,3.20
2011,02,28,10,07,3.20
2011,02,28,10,08,3.20
2011,02,28,10,09,3.30
2011,02,28,10,10,3.30
2011,02,28,10,11,3.40
2011,02,28,10,12,3.40
2011,02,28,10,13,3.40
2011,02,28,10,14,3.50
2011,02,28,10,15,3.50
2011,02,28,10,16,3.50
2011,02,28,10,17,3.60
2011,02,28,10,18,3.60
2011,02,28,10,19,3.60
2011,02,28,10,20,3.60
2011,02,28,10,21,3.70
2011,02,28,10,22,3.70
2011,02,28,10,23,3.70
2011,02,28,10,24,3.80
2011,02,28,10,25,3.80
2011,02,28,10,26,3.80
2011,02,28,10,27,3.80
2011,02,28,10,28,3.90
2011,02,28,10,29,3.90
2011,02,28,10,30,3.90
2011,02,28,10,31,3.90
2011,02,28,10,32,3.90
2011,02,28,10,33,3.90
2011,02,28,10,34,4.00
2011,02,28,10,35,4.00
2011,02,28,10,36,3.90
2011,02,28,10,37,3.90
2011,02,28,10,38,3.90
2011,02,28,10,39,3.90
2011,02,28,10,40,3.90
2011,02,28,10,41,3.90
2011,02,28,10,42,4.00
2011,02,28,10,43,4.00
2011,02,28,10,44,4.00
2011,02,28,10,45,4.00
2011,02,28,10,46,4.00
2011,02,28,10,47,4.10
2011,02,28,10,48,4.10
2011,02,28,10,49,4.10
2011,02,28,10,50,4.10
2011,02,28,10,51,4.10
2011,02,28,10,52,4.10
2011,02,28,10,53,4.00
2011,02,28,10,54,3.90
2011,02,28,10,55,3.90
2011,02,28,10,56,3.80
2011,02,28,10,57,3.80
2011,02,28,10,58,3.70
2011,02,28,10,59,3.70
2011,02,28,11,00,3.60
2011,02,28,11,01,3.50
2011,02,28,11,02,3.50
2011,02,28,11,03,3.40
2011,02,28,11,04,3.40
2011,02,28,11,05,3.40
2011,02,28,11,06,3.30
2011,02,28,11,07,3.30
2011,02,28,11,08,3.30
2011,02,28,11,09,3.30
2011,02,28,11,10,3.30
2011,02,28,11,11,3.30
2011,02,28,11,12,3.30
2011,02,28,11,13,3.30
2011,02,28,11,14,3.30
2011,02,28,11,15,3.40
2011,02,28,11,16,3.40
2011,02,28,11,17,3.40
2011,02,28,11,18,3.50
2011,02,28,11,19,3.60
2011,02,28,11,20,3.60
2011,02,28,11,21,3.70
2011,02,28,11,22,3.80
2011,02,28,11,23,3.90
2011,02,28,11,24,4.00
2011,02,28,11,25,4.10
2011,02,28,11,26,4.10
2011,02,28,11,27,4.20
2011,02,28,11,28,4.20
2011,02,28,11,29,4.20
2011,02,28,11,30,4.20
2011,02,28,11,31,4.30
2011,02,28,11,32,4.20
2011,02,28,11,33,4.20
2011,02,28,11,34,4.20
2011,02,28,11,35,4.20
2011,02,28,11,36,4.20
2011,02,28,11,37,4.20
2011,02,28,11,38,4.30
2011,02,28,11,39,4.30
2011,02,28,11,40,4.30
2011,02,28,11,41,4.30
2011,02,28,11,42,4.30
2011,02,28,11,43,4.30
2011,02,28,11,44,4.30
2011,02,28,11,45,4.40
2011,02,28,11,46,4.30
2011,02,28,11,47,4.30
2011,02,28,11,48,4.30
2011,02,28,11,49,4.30
2011,02,28,11,50,4.20
2011,02,28,11,51,4.20
2011,02,28,11,52,4.20
2011,02,28,11,53,4.20
2011,02,28,11,54,4.20
2011,02,28,11,55,4.20
2011,02,28,11,56,4.20
2011,02,28,11,57,4.20
2011,02,28,11,58,4.20
2011,02,28,11,59,4.20
2011,02,28,12,00,4.30
2011,02,28,12,01,4.30
2011,02,28,12,02,4.30
2011,02,28,12,03,4.30
2011,02,28,12,04,4.30
2011,02,28,12,05,4.40
2011,02,28,12,06,4.40
2011,02,28,12,07,4.50
2011,02,28,12,08,4.60
2011,02,28,12,09,4.60
2011,02,28,12,10,4.60
2011,02,28,12,11,4.70
2011,02,28,12,12,4.70
2011,02,28,12,13,4.70
2011,02,28,12,14,4.70
2011,02,28,12,15,4.70
2011,02,28,12,16,4.60
2011,02,28,12,17,4.70
2011,02,28,12,18,4.70
2011,02,28,12,19,4.70
2011,02,28,12,20,4.70
2011,02,28,12,21,4.60
2011,02,28,12,22,4.50
2011,02,28,12,23,4.50
2011,02,28,12,24,4.60
2011,02,28,12,25,4.60
2011,02,28,12,26,4.60
2011,02,28,12,27,4.70
2011,02,28,12,28,4.70
2011,02,28,12,29,4.70
2011,02,28,12,30,4.50
2011,02,28,12,31,4.40
2011,02,28,12,32,4.20
2011,02,28,12,33,4.10
2011,02,28,12,34,4.00
2011,02,28,12,35,3.80
2011,02,28,12,36,3.60
2011,02,28,12,37,3.30
2011,02,28,12,38,3.10
2011,02,28,12,39,3.00
2011,02,28,12,40,2.90
2011,02,28,12,41,3.00
2011,02,28,12,42,3.00
2011,02,28,12,43,3.00
2011,02,28,12,44,3.10
2011,02,28,12,45,3.10
2011,02,28,12,46,3.20
2011,02,28,12,47,3.20
2011,02,28,12,48,3.20
2011,02,28,12,49,3.20
2011,02,28,12,50,3.20
2011,02,28,12,51,3.30
2011,02,28,12,52,3.30
2011,02,28,12,53,3.30
2011,02,28,12,54,3.30
2011,02,28,12,55,3.30
2011,02,28,12,56,3.30
2011,02,28,12,57,3.30
2011,02,28,12,58,3.30
2011,02,28,12,59,3.30
2011,02,28,13,00,3.40
2011,02,28,13,01,3.40
2011,02,28,13,02,3.40
2011,02,28,13,03,3.40
2011,02,28,13,04,3.50
2011,02,28,13,05,3.50
2011,02,28,13,06,3.60
2011,02,28,13,07,3.60
2011,02,28,13,08,3.60
2011,02,28,13,09,3.70
2011,02,28,13,10,3.70
2011,02,28,13,11,3.70
2011,02,28,13,12,3.70
2011,02,28,13,13,3.70
2011,02,28,13,14,3.70
2011,02,28,13,15,3.70
2011,02,28,13,16,3.70
2011,02,28,13,17,3.70
2011,02,28,13,18,3.80
2011,02,28,13,19,3.80
2011,02,28,13,20,3.80
2011,02,28,13,21,3.90
2011,02,28,13,22,3.90
2011,02,28,13,23,3.90
2011,02,28,13,24,3.90
2011,02,28,13,25,4.00
2011,02,28,13,26,4.00
2011,02,28,13,27,4.00
2011,02,28,13,28,4.00
2011,02,28,13,29,4.10
2011,02,28,13,30,4.10
2011,02,28,13,31,4.10
2011,02,28,13,32,4.10
2011,02,28,13,33,4.20
2011,02,28,13,34,4.30
2011,02,28,13,35,4.30
2011,02,28,13,36,4.30
2011,02,28,13,37,4.40
2011,02,28,13,38,4.40
2011,02,28,13,39,4.40
2011,02,28,13,40,4.30
2011,02,28,13,41,4.30
2011,02,28,13,42,4.30
2011,02,28,13,43,4.30
2011,02,28,13,44,4.30
2011,02,28,13,45,4.40
2011,02,28,13,46,4.30
2011,02,28,13,47,4.40
2011,02,28,13,48,4.40
2011,02,28,13,49,4.50
2011,02,28,13,50,4.50
2011,02,28,13,51,4.50
2011,02,28,13,52,4.50
2011,02,28,13,53,4.60
2011,02,28,13,54,4.50
2011,02,28,13,55,4.50
2011,02,28,13,56,4.60
2011,02,28,13,57,4.60
2011,02,28,13,58,4.70
2011,02,28,13,59,4.70
2011,02,28,14,00,4.60
2011,02,28,14,01,4.60
2011,02,28,14,02,4.60
2011,02,28,14,03,4.60
2011,02,28,14,04,4.70
2011,02,28,14,05,4.70
2011,02,28,14,06,4.70
2011,02,28,14,07,4.80
2011,02,28,14,08,4.80
2011,02,28,14,09,4.80
2011,02,28,14,10,4.80
2011,02,28,14,11,4.80
2011,02,28,14,12,4.70
2011,02,28,14,13,4.70
2011,02,28,14,14,4.70
2011,02,28,14,15,4.70
2011,02,28,14,16,4.80
2011,02,28,14,17,4.80
2011,02,28,14,18,4.80
2011,02,28,14,19,4.80
2011,02,28,14,20,4.90
2011,02,28,14,21,4.90
2011,02,28,14,22,5.00
2011,02,28,14,23,5.00
2011,02,28,14,24,5.00
2011,02,28,14,25,5.10
2011,02,28,14,26,5.10
2011,02,28,14,27,5.10
2011,02,28,14,28,5.10
2011,02,28,14,29,5.10
2011,02,28,14,30,5.20
2011,02,28,14,31,5.10
2011,02,28,14,32,4.90
2011,02,28,14,33,4.90
2011,02,28,14,34,4.80
2011,02,28,14,35,4.80
2011,02,28,14,36,4.70
2011,02,28,14,37,4.70
2011,02,28,14,38,4.80
2011,02,28,14,39,4.80
2011,02,28,14,40,4.80
2011,02,28,14,41,4.80
2011,02,28,14,42,4.70
2011,02,28,14,43,4.70
2011,02,28,14,44,4.70
2011,02,28,14,45,4.70
2011,02,28,14,46,4.60
2011,02,28,14,47,4.60
2011,02,28,14,48,4.70
2011,02,28,14,49,4.70
2011,02,28,14,50,4.60
2011,02,28,14,51,4.70
2011,02,28,14,52,4.60
2011,02,28,14,53,4.60
2011,02,28,14,54,4.60
2011,02,28,14,55,4.60
2011,02,28,14,56,4.50
2011,02,28,14,57,4.40
2011,02,28,14,58,4.40
2011,02,28,14,59,4.30
2011,02,28,15,00,4.30
2011,02,28,15,01,4.30
2011,02,28,15,02,4.20
2011,02,28,15,03,4.20
2011,02,28,15,04,4.10
2011,02,28,15,05,4.10
2011,02,28,15,06,4.10
2011,02,28,15,07,4.10
2011,02,28,15,08,4.10
2011,02,28,15,09,4.10
2011,02,28,15,10,4.10
2011,02,28,15,11,4.20
2011,02,28,15,12,4.20
2011,02,28,15,13,4.20
2011,02,28,15,14,4.20
2011,02,28,15,15,4.20
2011,02,28,15,16,4.30
2011,02,28,15,17,4.30
2011,02,28,15,18,4.30
2011,02,28,15,19,4.30
2011,02,28,15,20,4.40
2011,02,28,15,21,4.40
2011,02,28,15,22,4.40
2011,02,28,15,23,4.30
2011,02,28,15,24,4.30
2011,02,28,15,25,4.30
2011,02,28,15,26,4.30
2011,02,28,15,27,4.30
2011,02,28,15,28,4.30
2011,02,28,15,29,4.30
2011,02,28,15,30,4.40
2011,02,28,15,31,4.40
2011,02,28,15,32,4.40
2011,02,28,15,33,4.40
2011,02,28,15,34,4.50
2011,02,28,15,35,4.50
2011,02,28,15,36,4.60
2011,02,28,15,37,4.70
2011,02,28,15,38,4.70
2011,02,28,15,39,4.70
2011,02,28,15,40,4.60
2011,02,28,15,41,4.60
2011,02,28,15,42,4.50
2011,02,28,15,43,4.50
2011,02,28,15,44,4.50
2011,02,28,15,45,4.40
2011,02,28,15,46,4.50
2011,02,28,15,47,4.50
2011,02,28,15,48,4.50
2011,02,28,15,49,4.40
2011,02,28,15,50,4.30
2011,02,28,15,51,4.20
2011,02,28,15,52,4.20
2011,02,28,15,53,4.10
2011,02,28,15,54,4.10
2011,02,28,15,55,4.10
2011,02,28,15,56,4.10
2011,02,28,15,57,4.10
2011,02,28,15,58,4.10
2011,02,28,15,59,4.10
2011,02,28,16,00,4.10
2011,02,28,16,01,4.20
2011,02,28,16,02,4.20
2011,02,28,16,03,4.30
2011,02,28,16,04,4.40
2011,02,28,16,05,4.50
2011,02,28,16,06,4.50
2011,02,28,16,07,4.60
2011,02,28,16,08,4.60
2011,02,28,16,09,4.70
2011,02,28,16,10,4.70
2011,02,28,16,11,4.80
2011,02,28,16,12,4.80
2011,02,28,16,13,4.80
2011,02,28,16,14,4.80
2011,02,28,16,15,4.80
2011,02,28,16,16,4.80
2011,02,28,16,17,4.70
2011,02,28,16,18,4.60
2011,02,28,16,19,4.60
2011,02,28,16,20,4.50
2011,02,28,16,21,4.50
2011,02,28,16,22,4.40
2011,02,28,16,23,4.40
2011,02,28,16,24,4.40
2011,02,28,16,25,4.30
2011,02,28,16,26,4.30
2011,02,28,16,27,4.30
2011,02,28,16,28,4.30
2011,02,28,16,29,4.30
2011,02,28,16,30,4.30
2011,02,28,16,31,4.30
2011,02,28,16,32,4.30
2011,02,28,16,33,4.30
2011,02,28,16,34,4.30
2011,02,28,16,35,4.30
2011,02,28,16,36,4.30
2011,02,28,16,37,4.30
2011,02,28,16,38,4.30
2011,02,28,16,39,4.30
2011,02,28,16,40,4.30
2011,02,28,16,41,4.30
2011,02,28,16,42,4.30
2011,02,28,16,43,4.20
2011,02,28,16,44,4.20
2011,02,28,16,45,4.20
2011,02,28,16,46,4.20
2011,02,28,16,47,4.10
2011,02,28,16,48,4.10
2011,02,28,16,49,4.10
2011,02,28,16,50,4.10
2011,02,28,16,51,4.00
2011,02,28,16,52,4.00
2011,02,28,16,53,4.00
2011,02,28,16,54,4.00
2011,02,28,16,55,3.90
2011,02,28,16,56,3.90
2011,02,28,16,57,3.90
2011,02,28,16,58,3.90
2011,02,28,16,59,3.90
2011,02,28,17,00,3.90
2011,02,28,17,01,3.80
2011,02,28,17,02,3.80
2011,02,28,17,03,3.80
2011,02,28,17,04,3.80
2011,02,28,17,05,3.80
2011,02,28,17,06,3.80
2011,02,28,17,07,3.80
2011,02,28,17,08,3.80
2011,02,28,17,09,3.80
2011,02,28,17,10,3.80
2011,02,28,17,11,3.80
2011,02,28,17,12,3.80
2011,02,28,17,13,3.80
2011,02,28,17,14,3.70
2011,02,28,17,15,3.70
2011,02,28,17,16,3.70
2011,02,28,17,17,3.70
2011,02,28,17,18,3.70
2011,02,28,17,19,3.70
2011,02,28,17,20,3.70
2011,02,28,17,21,3.70
2011,02,28,17,22,3.70
2011,02,28,17,23,3.70
2011,02,28,17,24,3.70
2011,02,28,17,25,3.70
2011,02,28,17,26,3.70
2011,02,28,17,27,3.70
2011,02,28,17,28,3.70
2011,02,28,17,29,3.70
2011,02,28,17,30,3.60
2011,02,28,17,31,3.60
2011,02,28,17,32,3.60
2011,02,28,17,33,3.50
2011,02,28,17,34,3.40
2011,02,28,17,35,3.40
2011,02,28,17,36,3.30
2011,02,28,17,37,3.30
2011,02,28,17,38,3.20
2011,02,28,17,39,3.20
2011,02,28,17,40,3.10
2011,02,28,17,41,3.10
2011,02,28,17,42,3.00
2011,02,28,17,43,3.00
2011,02,28,17,44,3.00
2011,02,28,17,45,2.90
2011,02,28,17,46,2.90
2011,02,28,17,47,2.90
2011,02,28,17,48,2.90
2011,02,28,17,49,2.90
2011,02,28,17,50,2.90
2011,02,28,17,51,2.90
2011,02,28,17,52,2.90
2011,02,28,17,53,2.90
2011,02,28,17,54,2.90
2011,02,28,17,55,2.80
2011,02,28,17,56,2.80
2011,02,28,17,57,2.80
2011,02,28,17,58,2.80
2011,02,28,17,59,2.80
2011,02,28,18,00,2.70
2011,02,28,18,01,2.70
2011,02,28,18,02,2.60
2011,02,28,18,03,2.60
2011,02,28,18,04,2.50
2011,02,28,18,05,2.50
2011,02,28,18,06,2.40
2011,02,28,18,07,2.40
2011,02,28,18,08,2.30
2011,02,28,18,09,2.20
2011,02,28,18,10,2.10